Theta_e
299 300 299 300 299 301 301 301 301 300 298 297 297 297 300 299 298 298 297 296 295 295 297 302 304 300 296 294 292 291 290 288 288 287 287 286 285 284 283 282 280 278 277 277
301 299 299 299 299 299 301 302 301 299 298 298 298 301 299 300 300 299 298 298 299 301 302 298 297 295 294 293 291 290 288 287 287 286 285 284 283 282 280 280 278 277 277 276
301 299 298 300 299 298 300 302 301 300 298 298 297 305 306 303 300 299 298 297 297 300 302 298 293 293 292 291 290 288 287 287 285 284 283 283 281 279 279 277 277 276 276 275
300 298 300 301 299 298 300 300 299 299 302 306 298 310 305 303 301 300 299 295 296 296 300 297 294 292 291 290 288 287 286 285 283 282 281 279 277 277 276 276 276 275 274 274
302 299 299 299 299 298 300 298 299 300 300 304 302 303 306 303 305 303 298 296 295 294 294 291 290 289 287 287 287 285 284 283 281 280 278 277 276 276 276 275 274 274 273 273
299 298 297 297 296 297 297 300 301 299 299 305 294 302 310 309 307 303 299 295 293 292 289 287 287 286 285 285 284 283 282 281 279 278 277 276 275 275 274 274 274 273 273 272
300 301 297 295 297 298 299 304 308 313 308 313 286 300 309 308 304 300 299 296 292 291 289 287 286 284 284 283 282 281 280 279 278 277 276 275 275 274 274 273 272 272 272 271
301 310 299 296 297 298 299 301 308 309 309 309 288 303 311 303 300 296 295 294 291 290 289 287 286 284 282 281 280 280 279 278 277 276 275 274 274 273 273 272 271 271 271 270
302 310 297 296 296 297 301 299 297 293 281 296 302 304 306 303 300 297 294 293 292 290 288 286 285 283 281 280 279 278 277 277 276 275 274 274 273 273 272 271 271 270 270 269
296 302 297 297 296 295 298 296 302 299 306 306 307 301 310 308 305 300 300 295 293 290 288 286 284 281 280 279 278 277 276 276 275 275 274 273 273 272 271 270 270 270 269 268
295 298 306 298 296 297 296 296 296 298 301 304 300 310 303 303 299 299 297 297 293 290 289 286 283 281 280 279 278 277 276 276 275 274 273 272 272 271 270 270 269 269 268 268
296 298 299 307 297 296 298 297 298 308 307 295 297 303 301 301 294 286 294 294 292 289 289 286 282 281 280 279 278 277 276 275 274 273 272 271 271 270 269 268 268 267 267 266
298 299 305 315 304 296 295 297 295 293 297 298 303 314 295 289 292 291 292 294 295 290 286 285 283 282 281 280 278 277 276 275 274 272 271 270 270 269 268 267 267 266 266 265
296 298 305 315 315 302 300 297 296 296 295 301 306 313 312 310 307 304 301 300 297 293 289 285 284 282 282 280 278 276 275 274 272 271 270 269 269 268 267 267 266 265 265 264
295 296 295 296 297 295 300 299 296 296 299 303 314 308 311 310 307 305 302 300 295 293 288 286 283 282 281 279 278 275 274 273 272 270 269 269 268 267 267 266 265 265 265 264
293 299 289 295 297 297 298 300 300 299 300 297 301 303 303 303 301 301 301 300 298 293 290 285 283 282 280 279 276 274 273 272 270 269 269 269 268 267 266 265 265 264 264 263
292 291 294 306 292 297 317 309 300 297 294 296 302 312 299 306 306 303 302 299 299 296 289 285 283 281 280 277 275 273 272 271 270 269 269 269 267 266 266 265 265 264 264 263
287 288 287 299 296 311 315 305 302 304 307 297 301 304 306 306 302 299 298 298 299 293 287 284 281 279 277 275 274 272 271 270 270 270 269 268 267 266 265 265 264 264 263 263
292 293 299 299 290 304 314 307 306 308 311 309 306 306 306 299 299 306 296 294 292 287 284 282 281 277 274 273 273 272 270 270 270 269 268 267 266 266 265 264 264 263 262 263
294 295 304 292 306 326 318 303 296 302 317 311 306 307 306 303 315 316 293 287 285 283 281 279 277 275 273 273 272 271 270 270 269 268 267 267 266 265 265 264 264 263 263 263
298 298 301 304 306 307 306 300 297 318 324 311 305 306 303 306 309 298 287 285 283 281 279 277 275 274 273 272 272 271 270 269 268 268 267 267 266 266 265 264 264 263 263 263
305 302 300 302 306 312 299 301 315 319 311 309 302 302 302 303 298 290 286 283 281 279 277 275 274 273 272 272 271 270 270 269 268 268 268 267 266 266 265 264 264 263 263 263
315 314 312 312 310 308 299 310 309 305 305 305 305 305 301 301 299 289 285 282 280 278 277 274 274 272 271 271 271 270 269 269 269 268 268 267 266 265 265 264 263 263 263 263
305 306 310 312 320 315 315 314 311 308 305 305 303 302 300 302 297 288 284 281 279 278 275 274 273 272 270 270 270 271 270 269 268 268 267 267 265 264 265 265 263 262 263 264
314 306 311 316 316 316 314 314 314 311 307 298 298 299 300 299 293 286 283 281 279 277 274 273 272 272 271 270 271 271 269 269 269 268 267 266 265 264 263 263 264 264 265 267
308 319 317 322 320 320 319 310 305 304 303 301 300 297 295 295 290 285 283 281 279 276 273 272 272 272 271 271 271 270 270 269 268 267 266 265 264 264 264 263 263 265 266 267
Wind_Speed
6 8 3 2 2 1 2 2 5 5 2 7 3 14 22 10 5 6 5 7 7 7 5 7 12 13 12 10 10 8 7 4 4 5 7 8 11 14 15 10 17 18 22 20
7 3 2 2 1 1 2 2 6 7 2 1 7 21 8 4 3 2 3 4 6 2 3 3 9 12 12 9 7 5 4 2 2 3 5 6 12 9 14 14 20 20 21 21
5 1 3 1 3 6 2 1 3 6 9 2 8 9 4 2 2 2 1 2 2 4 1 3 8 11 9 5 4 6 6 3 2 5 8 11 14 14 9 18 19 22 19 23
5 3 1 3 3 1 4 2 2 6 5 3 6 4 7 5 7 4 4 3 2 2 2 2 5 6 6 5 7 7 6 2 4 7 10 11 10 9 14 19 19 20 19 22
1 4 4 1 2 2 5 1 2 1 1 3 6 3 8 4 7 7 8 7 4 1 3 5 6 8 8 8 9 7 4 3 5 9 11 13 14 17 16 18 18 15 19 18
3 1 1 2 3 2 3 0 1 3 2 3 4 3 7 4 5 4 4 5 5 4 4 5 8 10 11 9 7 5 4 4 7 9 12 14 15 16 16 16 17 17 18 17
6 2 2 2 3 2 4 5 4 6 5 5 1 2 11 6 5 4 6 6 7 5 4 3 5 6 7 6 5 3 3 5 8 11 12 15 13 15 14 16 16 19 18 17
3 6 1 3 2 1 3 3 4 4 3 6 2 6 6 5 4 5 4 5 6 7 5 5 5 7 7 5 3 3 4 6 8 11 13 15 14 15 15 17 19 17 18 20
3 5 1 2 3 3 3 4 1 6 2 3 3 8 11 4 7 6 7 5 8 7 6 6 7 8 7 5 1 3 4 5 8 10 14 15 17 17 18 20 19 18 20 21
1 4 0 1 2 3 3 2 4 3 3 5 6 7 6 8 7 7 7 8 8 7 7 6 7 9 7 5 2 2 5 6 8 11 16 16 19 18 19 19 20 20 22 23
3 3 4 2 2 5 3 2 3 3 3 4 3 8 8 9 6 8 8 8 8 8 8 6 7 9 8 5 1 4 6 7 8 13 16 18 18 19 20 20 22 22 24 23
0 3 4 7 3 2 1 4 4 4 6 3 3 10 6 10 6 4 10 9 7 5 4 6 11 11 8 4 1 3 6 8 10 15 19 19 20 20 21 24 26 26 24 24
3 1 4 8 2 2 2 4 4 3 2 6 3 8 1 5 7 6 10 9 7 4 4 4 7 8 7 3 0 5 6 8 11 17 19 21 21 22 24 26 27 26 25 24
1 2 6 6 8 2 3 5 5 5 3 4 13 25 29 23 14 12 7 8 6 6 7 6 6 8 7 4 1 5 6 8 13 16 18 21 24 25 27 28 28 26 26 24
3 4 2 7 13 5 12 10 9 11 11 8 25 11 29 26 21 18 9 6 3 3 5 6 7 6 7 4 3 3 5 10 13 15 18 21 24 26 28 28 28 27 26 24
1 3 1 6 5 6 9 16 14 17 16 13 26 31 26 27 15 7 9 7 5 5 6 7 7 8 8 6 3 2 5 9 12 15 18 21 24 26 27 27 27 27 27 26
3 3 3 7 7 12 10 7 9 5 6 7 7 17 2 14 6 5 7 6 7 6 6 8 8 9 9 7 3 3 6 8 12 16 18 23 25 27 27 27 27 27 27 27
5 4 2 4 6 2 7 5 7 11 14 15 14 17 19 13 3 9 8 7 5 5 7 8 10 12 10 7 4 2 6 8 13 17 21 24 25 26 27 27 26 27 26 26
2 4 1 1 3 10 10 4 5 6 11 19 15 18 14 4 4 10 1 2 3 5 8 11 15 13 11 7 1 2 4 9 14 19 21 23 23 24 25 25 26 26 24 25
2 2 1 2 4 7 8 3 3 4 9 8 11 11 6 3 12 11 3 4 7 12 14 14 15 14 10 5 1 1 7 11 17 19 22 22 22 22 23 23 24 24 21 22
3 2 6 7 6 11 14 6 6 2 16 4 6 6 7 4 6 1 7 6 11 13 15 15 16 14 10 5 2 2 6 11 14 17 20 22 21 22 21 22 22 21 21 22
10 10 6 3 5 12 9 5 9 11 2 3 4 5 6 8 4 5 7 10 11 14 16 16 16 13 8 5 2 2 5 10 13 17 20 21 21 21 21 21 22 20 18 21
4 9 6 12 10 5 12 13 10 4 4 10 8 9 9 6 6 10 9 11 11 16 16 17 18 14 9 6 3 2 5 8 12 15 19 21 21 20 20 20 20 19 18 17
6 6 5 2 23 27 24 22 19 17 15 14 5 8 7 10 6 9 11 11 11 16 16 20 19 16 13 9 4 1 3 7 11 15 17 21 22 22 21 22 18 16 17 19
7 10 9 19 30 31 23 25 21 16 5 3 4 7 12 7 6 11 11 13 14 18 18 24 22 18 14 9 5 1 3 6 10 13 16 19 22 23 22 19 19 19 17 19
7 17 10 16 30 22 26 9 5 6 6 9 8 5 7 8 9 10 12 16 20 19 21 21 20 17 16 12 7 2 2 5 9 12 16 18 20 22 23 24 23 18 14 17
Wind_Direction
12 63 57 9 10 245 278 271 274 265 1 326 255 288 291 293 232 256 313 342 308 272 292 245 206 188 180 189 201 211 219 226 277 315 328 328 333 335 331 323 334 336 337 339
25 72 311 279 325 284 192 292 296 282 264 332 326 294 278 271 246 245 318 341 348 11 27 81 161 171 185 193 198 207 200 204 307 352 348 338 328 318 328 323 334 336 339 335
102 88 312 308 30 17 330 280 323 258 318 249 316 297 334 254 264 220 92 339 345 334 288 141 164 177 177 173 189 178 164 167 43 359 339 331 332 329 329 335 336 338 333 334
86 308 27 32 54 106 300 155 257 283 8 281 16 278 310 321 300 246 235 247 277 2 65 126 155 157 168 165 156 151 148 115 20 354 348 352 347 336 327 333 329 333 332 337
309 11 19 22 265 173 261 293 250 258 104 5 357 63 269 357 299 268 233 226 216 87 76 77 89 128 124 137 140 135 117 58 10 355 353 352 344 341 335 332 331 330 332 334
67 44 43 260 288 230 307 224 98 69 101 22 273 83 281 249 224 292 268 240 220 177 124 101 103 117 116 115 110 94 53 23 4 355 353 351 346 344 334 337 334 330 326 321
353 3 313 29 326 215 24 39 344 357 7 234 269 11 247 264 258 243 274 253 226 197 186 155 134 124 118 118 109 77 23 9 356 351 348 351 342 338 336 332 327 326 322 319
80 321 23 10 43 281 19 109 142 250 277 281 32 234 251 224 258 256 254 255 192 201 195 192 172 157 150 128 99 57 12 358 350 345 344 346 341 339 330 328 324 316 314 315
32 276 121 34 25 48 345 40 135 98 74 22 272 288 294 281 291 273 263 247 240 223 201 191 174 171 158 146 125 42 5 352 339 337 341 342 337 334 328 324 324 315 315 317
150 327 241 32 103 36 100 163 32 15 338 296 295 279 240 301 296 321 308 269 256 236 199 185 166 167 164 145 151 18 351 343 339 337 341 334 333 330 325 326 323 319 315 315
132 104 297 42 189 174 32 17 35 127 141 215 299 269 217 242 240 275 289 286 267 239 204 174 169 167 166 161 108 2 338 336 339 343 336 334 328 326 327 327 323 320 317 315
34 136 279 241 98 78 127 189 169 124 272 223 158 262 215 234 248 208 281 275 281 254 163 157 165 167 164 164 81 328 320 339 343 335 333 333 330 330 332 329 328 325 318 316
171 321 341 343 62 17 187 202 147 126 81 214 178 261 297 251 287 245 258 287 274 177 178 157 155 159 163 186 84 311 327 341 332 334 333 336 335 336 335 332 330 327 323 319
111 193 175 208 232 150 211 206 208 155 158 206 236 281 282 287 297 299 304 274 277 211 177 181 166 164 189 174 277 299 336 334 333 333 338 339 340 341 338 335 333 332 331 326
133 228 212 259 264 252 265 242 219 203 219 219 273 258 280 291 298 295 305 280 237 226 198 185 174 172 175 179 253 313 327 331 333 340 343 345 342 341 339 339 339 338 336 331
59 277 79 282 287 262 269 247 232 234 252 257 262 279 265 267 283 277 273 284 258 231 197 176 166 162 167 190 211 284 321 335 340 341 349 345 344 343 343 342 343 341 339 339
141 123 44 270 337 319 292 236 170 213 211 173 221 260 325 296 274 264 271 231 247 230 170 167 160 156 177 176 189 282 335 339 342 351 351 349 346 344 344 345 345 343 342 342
137 101 99 271 354 330 246 217 185 200 255 208 266 274 276 279 249 272 251 237 231 163 148 141 143 159 158 161 199 342 345 347 352 352 354 351 346 344 344 344 344 344 344 340
35 130 277 270 231 297 276 196 152 182 272 248 230 256 268 300 307 277 142 135 125 129 131 138 158 154 151 164 187 354 349 355 357 356 353 349 345 343 341 342 342 344 337 338
86 38 184 106 240 277 216 181 149 150 283 234 195 231 252 83 307 321 143 122 118 125 136 143 150 148 155 163 164 319 2 3 359 352 347 349 347 344 341 341 341 339 339 336
140 147 214 235 251 273 263 183 145 85 292 156 188 214 165 222 243 196 132 125 138 142 144 148 150 158 167 158 157 32 2 6 351 345 348 351 351 348 345 339 341 339 339 335
170 168 201 198 224 277 155 94 185 263 226 232 213 232 235 237 212 175 147 148 148 148 156 159 154 163 160 165 153 62 15 355 348 348 349 352 354 354 347 342 345 340 333 326
209 202 199 197 222 239 196 243 260 253 261 277 274 278 222 235 220 167 168 160 162 162 168 165 167 164 168 175 173 70 7 347 350 351 350 352 356 356 353 345 341 329 330 318
233 203 229 275 251 259 262 268 257 261 250 264 233 235 200 231 178 168 158 161 163 172 170 172 172 173 179 183 174 78 354 351 349 349 351 354 354 354 359 355 343 325 324 316
195 148 216 248 268 276 270 260 272 271 256 224 219 215 224 207 181 165 166 168 174 172 170 179 181 184 182 181 179 176 356 347 350 347 350 356 355 354 352 349 342 324 324 319
181 224 223 250 259 259 281 291 208 209 233 235 228 234 227 197 167 164 168 170 170 173 172 178 185 182 180 184 182 180 314 341 346 342 348 355 353 353 354 347 338 351 338 333